GW0110 Weather Reports


time (UTC)temp
F
wind
direction
speed
knots
gust
knots
rain 1hr
in
rain 24hr
in
rain mn
in
humidity
%
barometer
mb
20260506211514 48 307 0.0 7.8 0.15 0.83 0.74 77 1006.0
20260506210013 51 290 2.6 7.0 0.04 0.71 0.62 75 1005.2
20260506204509 57 322 1.7 4.3 0.02 0.69 0.60 76 1004.7
20260506203008 58 138 0.9 5.2 0.02 0.68 0.59 77 1004.8
20260506201605 58 149 0.9 7.8 0.02 0.68 0.59 77 1004.9
20260506200108 58 153 2.6 11.3 0.01 0.67 0.57 77 1005.0
20260506194605 58 140 2.6 10.4 0.01 0.67 0.57 77 1005.0
20260506193100 58 167 4.3 8.7 0.04 0.67 0.57 77 1005.1
20260506193058 58 165 4.3 8.7 0.04 0.67 0.57 77 1005.1
20260506191604 57 134 1.7 6.1 0.07 0.66 0.56 77 1005.3
20260506190052 57 84 1.7 4.3 0.11 0.66 0.56 77 1005.6
20260506184550 56 252 1.7 6.1 0.33 0.66 0.56 77 1005.7
20260506183051 56 130 1.7 3.5 0.38 0.63 0.54 77 1005.8
20260506181555 56 121 0.9 1.7 0.36 0.59 0.50 77 1006.0
20260506180103 56 96 0.9 3.5 0.33 0.54 0.45 77 1006.0
20260506174539 56 302 0.9 7.8 0.14 0.33 0.24 76 1006.5
20260506173041 57 163 1.7 5.2 0.07 0.25 0.16 75 1006.2
20260506171535 57 123 1.7 4.3 0.06 0.23 0.14 75 1006.3
20260506170031 57 152 4.3 8.7 0.05 0.21 0.12 75 1006.4
20260506164530 57 149 3.5 7.8 0.03 0.19 0.10 75 1006.7
20260506163029 56 132 5.2 8.7 0.03 0.18 0.09 75 1006.6
20260506161524 57 115 6.1 11.3 0.03 0.17 0.08 74 1006.9
20260506160021 57 128 5.2 9.6 0.03 0.16 0.07 73 1007.3
20260506154519 57 147 2.6 8.7 0.04 0.16 0.07 74 1007.7
20260506153017 57 103 3.5 9.6 0.04 0.15 0.06 74 1007.9
20260506151514 57 128 2.6 7.8 0.03 0.14 0.05 74 1008.0
20260506150015 57 186 2.6 7.0 0.02 0.13 0.04 73 1008.2
20260506144519 57 167 3.5 7.8 0.01 0.12 0.03 71 1008.1
20260506143011 58 153 3.5 7.0 0.00 0.11 0.02 70 1008.0
20260506141508 58 184 3.5 7.0 0.00 0.11 0.02 69 1008.1
20260506140007 57 144 2.6 7.8 0.00 0.11 0.02 70 1008.0
20260506134506 57 149 3.5 11.3 0.00 0.11 0.02 70 1008.0
20260506133005 56 98 4.3 7.8 0.00 0.11 0.02 72 1008.3
20260506131506 55 130 0.9 5.2 0.00 0.11 0.02 75 1008.4
20260506130003 55 105 0.0 0.0 0.00 0.11 0.02 75 1008.2
20260506124502 55 302 0.0 0.0 0.00 0.11 0.02 74 1008.5
20260506123100 56 161 0.0 1.7 0.00 0.11 0.02 73 1008.5
20260506121558 55 203 2.6 6.1 0.00 0.11 0.02 73 1008.4
20260506120101 54 153 2.6 7.8 0.00 0.11 0.02 77 1008.4
20260506114556 53 202 0.0 0.0 0.00 0.11 0.02 77 1008.5
20260506113100 52 288 0.0 0.0 0.00 0.11 0.02 77 1008.7
20260506111558 52 288 0.0 1.7 0.00 0.11 0.02 78 1008.7
20260506110053 51 104 0.0 0.0 0.00 0.11 0.02 77 1008.7
20260506104557 51 104 0.0 0.0 0.00 0.11 0.02 77 1008.6
20260506103051 51 104 0.0 0.0 0.00 0.11 0.02 77 1008.9
20260506101548 51 104 0.0 0.0 0.00 0.11 0.02 77 1008.5
20260506100045 51 104 0.0 0.0 0.00 0.11 0.02 76 1008.7
20260506094544 52 104 0.0 0.0 0.00 0.11 0.02 76 1008.6
20260506093044 52 104 0.0 0.9 0.00 0.11 0.02 76 1008.7
20260506091542 53 104 0.0 0.0 0.00 0.11 0.02 76 1008.8
20260506090039 53 104 0.0 0.0 0.00 0.11 0.02 76 1008.9
20260506084537 54 104 0.0 0.0 0.00 0.11 0.02 75 1009.2
20260506083036 54 104 0.0 0.9 0.00 0.11 0.02 75 1009.1
20260506081501 54 104 0.0 0.9 0.00 0.11 0.02 75 1008.9
20260506080110 54 97 0.9 1.7 0.00 0.11 0.02 75 1008.8
20260506073105 55 128 0.0 0.0 0.00 0.11 0.02 74 1009.0
20260506071551 55 128 0.0 0.0 0.00 0.11 0.02 73 1009.2
20260506061517 56 35 0.0 1.7 0.01 0.11 0.02 72 1009.7
20260506044534 59 119 0.9 3.5 0.01 0.10 0.01 67 1009.1
20260506043022 61 175 3.5 7.0 0.01 0.10 0.01 62 1009.1
20260506041517 62 163 1.7 6.1 0.00 0.09 0.00 58 1008.7
20260506040012 62 211 0.0 3.5 0.00 0.09 0.00 57 1008.5
20260506034509 61 169 0.9 7.0 0.00 0.09 0.00 57 1008.7
20260506033038 61 165 1.7 8.7 0.00 0.09 0.00 58 1008.4
20260506031534 61 148 4.3 7.8 0.00 0.09 0.00 58 1008.3
20260506030028 59 126 2.6 4.3 0.00 0.09 0.00 60 1008.4
20260506024527 59 139 1.7 4.3 0.00 0.09 0.00 60 1008.7
20260506023021 59 154 3.5 7.0 0.00 0.09 0.00 60 1008.3
20260506021518 58 162 2.6 6.1 0.00 0.09 0.00 60 1008.2
20260506020012 57 124 3.5 6.1 0.00 0.09 0.00 61 1008.2
20260506014508 56 130 1.7 3.5 0.00 0.09 0.00 66 1008.1
20260506013003 59 208 0.0 5.2 0.00 0.09 0.09 64 1007.9
20260506011502 60 152 0.0 3.5 0.00 0.09 0.09 62 1007.9
20260506010116 60 146 0.9 3.5 0.00 0.09 0.09 59 1007.9
20260506004556 59 115 1.7 3.5 0.00 0.09 0.09 62 1008.0
20260506003057 59 143 0.9 2.6 0.00 0.09 0.09 63 1007.7
20260506001551 59 111 0.9 3.5 0.00 0.09 0.09 64 1007.7
20260506000056 59 162 1.7 3.5 0.00 0.09 0.09 64 1007.7
20260505234546 59 149 0.9 3.5 0.00 0.09 0.09 65 1007.5
20260505233044 59 97 0.0 2.6 0.00 0.09 0.09 67 1007.2
20260505231544 60 94 0.0 1.7 0.00 0.09 0.09 65 1007.1
20260505230038 60 107 1.7 5.2 0.00 0.09 0.09 64 1007.0
20260505224536 61 123 1.7 5.2 0.00 0.09 0.09 63 1007.0
20260505223035 62 108 0.0 6.1 0.00 0.09 0.09 62 1006.7
20260505221534 61 219 0.0 5.2 0.03 0.09 0.09 63 1007.0
20260505220045 61 266 1.7 8.7 0.04 0.09 0.09 61 1006.7
20260505214532 59 113 5.2 10.4 0.05 0.09 0.09 66 1006.4
20260505213024 60 155 5.2 9.6 0.09 0.09 0.09 65 1006.8